FREGAT DEB, 46413

Orbit data source: Space-Track

FREGAT DEB, 46413 is space debris in LEO originally from a launch on Mon, 18 Jul 2011 UTC launched from the Tyuratam Missile And Space Complex (TTMTR). Debris objects in space refer to the collection of defunct objects orbiting the Earth. Examples of debris include non-operational satellites, rocket bodies, and fragments generated from explosions, collisions, or faulty payload assembly.

Loading next visibility...
Identifier
46413, 2011-037LU
Orbit
LEO
Country
Flag of CISCIS
Related business
Manufacturer
Lavochkin
Mission
Spacecraft
Bus & Motor
Unknown
Mass
Unknown
Launch date (UTC)
2011-07-18 (15 years ago)
Launch vehicle
Unknown
Launch site
Tyuratam Missile And Space Complex (TTMTR)
Object type
Payload
Rocket body
Debris
Shape & HBR
Unknown shape, 0.1 m
Radar Cross Section
Medium (>0.1 m² and <1 m²)

Expand to show TLE details & history
Last TLE update: 15 hours ago

TLE from 15 hours ago
0 FREGAT DEB
1 46413U 11037LU  26256.26685109  .00010688  00000-0  49249-1 0  9990
2 46413  51.0086 337.0784 1141406 312.9286  38.1068 11.50456708 96547
Epoch: 2026-09-13T06:24Z
TLE epoch observation values (Epoch: 2026-09-13T06:24:15.934Z)
Latitude
0.00004°
Longitude
-111.25192°
Altitude
1,214.011 km
Speed
7.546 km/s
True Right ascension
22h 28m 18s
True Declination
0° 00' 00"
Sunlit
Object was in full shadow at epoch
Visualization orbit readout
Latitude
Unknown
Longitude
Unknown
Altitude
Unknown
Speed
Unknown
Apparent Right ascension
Unknown
Apparent Declination
Unknown
Sunlit
N/A
Visualization observer readout
Local Sidereal Time
13:51:58
Azimuth
Unknown
Elevation
Unknown
Doppler factor
Unknown
Orbital elements
Apogee altitude
2,857.253 km
Perigee altitude
964.973 km
Semi-major axis
8,289.25 km
Eccentricity
0.11414
Inclination
51.0086°
RAAN
337.0784°
Arg. of periapsis
312.9286°
True anomaly
47.15517°
Mean anomaly
38.1068°
Eccentric anomaly
42.52731°
Mean motion
2.87588 °/min
Orbital period
125.18 mins
BSTAR
0.049249
Loading maneuver chart data...
Computing Atmospheric mass density...
Loading historical data...
Loading historical data...
Loading historical data...
Loading historical data...
Loading historical data...
Loading historical data...
Loading historical data...

Documentation

Showing up to 5 results
|